DLH1317 DAAG-EDDF

Flight info

Callsign DLH1317
Flight time N/A
Altitude 38000
Route OTARO1B OTARO DCT RISEP DCT LUNOR DCT ZETCO DCT LERMA DCT PIGOS DCT EKSID DCT NOSTA DCT NOPMU DCT ABESI DCT LADOL T163 EMPAX EMPAX5B
Aircraft A346/H-SDE2E3FGHIJ3J4J5M1RWXY/LB1D1

Departure

Time 2026-05-06 19:53
Airport Houari Boumediene Airport (DAAG)

Arrival

Time N/A
Airport Frankfurt Main Airport (EDDF)
Time Latitude Longitude Altitude Speed Heading
2026-05-06 18:59 36.69545 3.20159 78 ft 0 kts 52°
2026-05-06 19:44 36.69536 3.20144 67 ft 0 kts 52°
2026-05-06 19:44 36.69520 3.20118 67 ft 0 kts 52°
2026-05-06 19:44 36.69504 3.20092 67 ft 0 kts 52°
2026-05-06 19:44 36.69488 3.20066 67 ft 0 kts 52°
2026-05-06 19:45 36.69484 3.20059 67 ft 0 kts 52°
2026-05-06 19:45 36.69484 3.20060 67 ft 9 kts 52°
2026-05-06 19:46 36.69484 3.20059 67 ft 18 kts 52°
2026-05-06 19:46 36.69484 3.20060 67 ft 0 kts 52°
2026-05-06 19:47 36.69485 3.20060 67 ft 0 kts 53°
2026-05-06 19:48 36.69487 3.20066 67 ft 1 kts 69°
2026-05-06 19:48 36.69487 3.20069 67 ft 0 kts 82°
2026-05-06 19:48 36.69487 3.20072 67 ft 0 kts 91°
2026-05-06 19:48 36.69486 3.20087 67 ft 3 kts 102°
2026-05-06 19:49 36.69479 3.20129 68 ft 7 kts 102°
2026-05-06 19:49 36.69463 3.20199 69 ft 10 kts 111°
2026-05-06 19:49 36.69448 3.20297 71 ft 13 kts 91°
2026-05-06 19:49 36.69445 3.20421 76 ft 15 kts 91°
2026-05-06 19:50 36.69441 3.20570 78 ft 19 kts 91°
2026-05-06 19:50 36.69438 3.20727 71 ft 17 kts 91°
2026-05-06 19:50 36.69401 3.20861 76 ft 17 kts 144°
2026-05-06 19:50 36.69320 3.20909 73 ft 9 kts 160°
2026-05-06 19:51 36.69251 3.20940 81 ft 11 kts 160°
2026-05-06 19:51 36.69174 3.20970 86 ft 11 kts 171°
2026-05-06 19:51 36.69115 3.20930 87 ft 10 kts 249°
2026-05-06 19:51 36.69114 3.20905 87 ft 4 kts 270°
2026-05-06 19:52 36.69117 3.20749 87 ft 41 kts 272°
2026-05-06 19:52 36.69134 3.20108 87 ft 105 kts 272°
2026-05-06 19:52 36.69162 3.18952 91 ft 159 kts 271°
2026-05-06 19:52 36.69198 3.17419 297 ft 186 kts 273°
2026-05-06 19:53 36.69262 3.15775 874 ft 192 kts 274°
2026-05-06 19:53 36.69343 3.14100 1574 ft 194 kts 277°
2026-05-06 19:53 36.69708 3.12522 2299 ft 189 kts 305°
2026-05-06 19:53 36.70693 3.11511 2899 ft 186 kts 344°
2026-05-06 19:54 36.71973 3.11509 3441 ft 188 kts 19°
2026-05-06 19:54 36.73126 3.12316 3935 ft 197 kts 43°
2026-05-06 19:54 36.74139 3.13536 4318 ft 212 kts 32°
2026-05-06 19:54 36.75498 3.14399 4708 ft 228 kts 23°
2026-05-06 19:55 36.77018 3.15216 5040 ft 248 kts 22°
2026-05-06 19:55 36.78655 3.16140 5459 ft 266 kts 24°
2026-05-06 19:55 36.80361 3.17162 6127 ft 276 kts 25°
2026-05-06 19:55 36.82094 3.18243 6927 ft 280 kts 26°
2026-05-06 19:56 36.83847 3.19361 7733 ft 285 kts 26°
2026-05-06 19:56 36.85622 3.20508 8572 ft 289 kts 26°
2026-05-06 19:56 36.87423 3.21683 9425 ft 294 kts 27°
2026-05-06 19:56 36.89226 3.22863 10222 ft 299 kts 27°
2026-05-06 19:57 36.91111 3.24103 10779 ft 314 kts 26°
2026-05-06 19:57 36.93100 3.25411 11212 ft 331 kts 26°
2026-05-06 19:57 36.95201 3.26792 11633 ft 350 kts 26°
2026-05-06 19:57 36.97408 3.28241 12042 ft 368 kts 26°
2026-05-06 19:58 36.99732 3.29772 12425 ft 386 kts 26°
2026-05-06 19:58 37.02140 3.31362 12930 ft 398 kts 26°
2026-05-06 19:58 37.04609 3.32995 13698 ft 403 kts 26°
2026-05-06 19:58 37.07103 3.34645 14394 ft 407 kts 26°
2026-05-06 19:59 37.09625 3.36313 15028 ft 412 kts 26°
2026-05-06 19:59 37.12176 3.38001 15698 ft 418 kts 26°
2026-05-06 19:59 37.14735 3.39695 16367 ft 423 kts 25°
2026-05-06 19:59 37.17294 3.41407 17040 ft 429 kts 27°
2026-05-06 20:00 37.19758 3.43407 17711 ft 435 kts 30°
2026-05-06 20:00 37.22352 3.45243 18364 ft 438 kts 25°
2026-05-06 20:00 37.25020 3.46963 18935 ft 442 kts 24°
2026-05-06 20:00 37.27785 3.48735 19507 ft 447 kts 24°
2026-05-06 20:01 37.30566 3.50544 20104 ft 452 kts 25°
2026-05-06 20:01 37.33319 3.52366 20677 ft 456 kts 25°
2026-05-06 20:01 37.36177 3.54279 21281 ft 461 kts 25°
2026-05-06 20:01 37.38975 3.56166 21851 ft 465 kts 25°
2026-05-06 20:02 37.41835 3.58104 22396 ft 469 kts 25°
2026-05-06 20:02 37.44726 3.60066 22963 ft 473 kts 25°
2026-05-06 20:02 37.47635 3.62047 23494 ft 477 kts 26°
2026-05-06 20:02 37.50572 3.64051 23907 ft 481 kts 25°
2026-05-06 20:03 37.53524 3.66068 24332 ft 484 kts 25°
2026-05-06 20:03 37.56495 3.68100 24812 ft 487 kts 25°
2026-05-06 20:03 37.59483 3.70145 25325 ft 489 kts 25°
2026-05-06 20:03 37.62481 3.72199 25832 ft 492 kts 25°
2026-05-06 20:04 37.65502 3.74270 26322 ft 495 kts 25°
2026-05-06 20:04 37.68546 3.76358 26810 ft 498 kts 25°
2026-05-06 20:04 37.71606 3.78460 27263 ft 502 kts 25°
2026-05-06 20:04 37.74676 3.80570 27725 ft 504 kts 25°
2026-05-06 20:05 37.77773 3.82701 28216 ft 507 kts 25°
2026-05-06 20:05 37.80836 3.84811 28807 ft 506 kts 25°
2026-05-06 20:05 37.83925 3.86943 29564 ft 503 kts 25°
2026-05-06 20:05 37.86987 3.89059 30274 ft 499 kts 25°
2026-05-06 20:06 37.90033 3.91166 30865 ft 498 kts 25°
2026-05-06 20:06 37.93080 3.93272 31343 ft 499 kts 25°
2026-05-06 20:06 37.96129 3.95380 31806 ft 499 kts 25°
2026-05-06 20:06 37.99182 3.97495 32299 ft 499 kts 24°
2026-05-06 20:07 38.02242 3.99617 32808 ft 499 kts 24°
2026-05-06 20:07 38.05298 4.01738 33312 ft 498 kts 24°
2026-05-06 20:07 38.08300 4.03824 33803 ft 498 kts 24°
2026-05-06 20:07 38.11342 4.05940 34233 ft 498 kts 24°
2026-05-06 20:08 38.14383 4.08054 34639 ft 498 kts 24°
2026-05-06 20:08 38.17430 4.10175 34994 ft 499 kts 24°
2026-05-06 20:08 38.20481 4.12304 35336 ft 500 kts 24°
2026-05-06 20:08 38.23541 4.14442 35673 ft 501 kts 24°
2026-05-06 20:09 38.26567 4.16558 35989 ft 502 kts 24°
2026-05-06 20:09 38.29628 4.18699 36297 ft 503 kts 24°
2026-05-06 20:09 38.32699 4.20848 36550 ft 505 kts 24°
2026-05-06 20:09 38.35785 4.23010 36807 ft 506 kts 24°
2026-05-06 20:10 38.38872 4.25175 37042 ft 508 kts 23°
2026-05-06 20:10 38.41981 4.27357 37261 ft 510 kts 23°
2026-05-06 20:10 38.45095 4.29545 37472 ft 512 kts 23°
2026-05-06 20:10 38.48223 4.31745 37683 ft 514 kts 23°
2026-05-06 20:11 38.51360 4.33954 37886 ft 516 kts 23°
2026-05-06 20:11 38.54510 4.36174 37939 ft 518 kts 23°
2026-05-06 20:11 38.60824 4.40629 37957 ft 518 kts 23°
2026-05-06 20:12 38.67089 4.45063 37955 ft 518 kts 24°
2026-05-06 20:12 38.73484 4.49598 37953 ft 518 kts 24°
2026-05-06 20:13 38.79750 4.54050 37945 ft 518 kts 24°
2026-05-06 20:13 38.86066 4.58544 37950 ft 518 kts 24°
2026-05-06 20:14 38.92358 4.63038 37950 ft 517 kts 24°
2026-05-06 20:14 38.98676 4.67480 37954 ft 515 kts 21°
2026-05-06 20:15 39.05205 4.71183 37976 ft 511 kts 16°
2026-05-06 20:15 39.11843 4.74507 37965 ft 511 kts 15°
2026-05-06 20:16 39.18474 4.77827 37961 ft 511 kts 15°
2026-05-06 20:16 39.25106 4.81176 37957 ft 512 kts 15°
2026-05-06 20:17 39.31694 4.84515 37964 ft 512 kts 16°
2026-05-06 20:17 39.38322 4.87888 37959 ft 512 kts 16°
2026-05-06 20:18 39.44947 4.91264 37959 ft 512 kts 16°
2026-05-06 20:18 39.51629 4.94659 38071 ft 508 kts 19°
2026-05-06 20:19 39.58228 4.98054 37973 ft 511 kts 16°
2026-05-06 20:19 39.64858 5.01456 37961 ft 512 kts 16°
2026-05-06 20:20 39.71450 5.04835 37984 ft 512 kts 16°
2026-05-06 20:20 39.78089 5.08248 37969 ft 513 kts 16°
2026-05-06 20:21 39.84732 5.11673 37962 ft 513 kts 16°
2026-05-06 20:21 39.91372 5.15104 37967 ft 513 kts 16°
2026-05-06 20:22 39.98018 5.18544 37970 ft 513 kts 17°
2026-05-06 20:22 40.04623 5.21972 37970 ft 513 kts 17°
2026-05-06 20:23 40.11270 5.25429 37970 ft 514 kts 17°
2026-05-06 20:23 40.17908 5.28887 37978 ft 514 kts 17°
2026-05-06 20:24 40.24563 5.32363 37971 ft 514 kts 17°
2026-05-06 20:24 40.31171 5.35823 37968 ft 514 kts 17°
2026-05-06 20:25 40.37787 5.39378 37986 ft 516 kts 19°
2026-05-06 20:25 40.44218 5.43660 37978 ft 519 kts 24°
2026-05-06 20:26 40.50561 5.48212 37979 ft 519 kts 24°
2026-05-06 20:26 40.56901 5.52774 37978 ft 519 kts 24°
2026-05-06 20:27 40.63250 5.57332 37968 ft 519 kts 24°
2026-05-06 20:27 40.69607 5.61897 37972 ft 519 kts 24°
2026-05-06 20:28 40.75908 5.66431 37976 ft 519 kts 24°
2026-05-06 20:28 40.82246 5.71000 37977 ft 520 kts 24°
2026-05-06 20:29 40.88595 5.75587 37971 ft 520 kts 24°
2026-05-06 20:29 40.94949 5.80190 37972 ft 520 kts 24°
2026-05-06 20:30 41.04490 5.87118 37981 ft 520 kts 24°
2026-05-06 20:31 41.10808 5.91720 37974 ft 521 kts 25°
2026-05-06 20:31 41.17167 5.96361 37974 ft 521 kts 25°
2026-05-06 20:32 41.23528 6.01012 37982 ft 521 kts 25°
2026-05-06 20:32 41.29834 6.05636 37977 ft 521 kts 25°
2026-05-06 20:33 41.36184 6.10303 37951 ft 520 kts 25°
2026-05-06 20:33 41.42568 6.15003 37984 ft 520 kts 25°
2026-05-06 20:34 41.48859 6.19647 37971 ft 520 kts 25°
2026-05-06 20:34 41.55194 6.24334 37973 ft 520 kts 25°
2026-05-06 20:35 41.61525 6.29028 37990 ft 520 kts 25°
2026-05-06 20:35 41.66784 6.32934 37978 ft 520 kts 25°
2026-05-06 20:36 41.73118 6.37651 37973 ft 520 kts 25°
2026-05-06 20:36 41.80476 6.43144 37966 ft 520 kts 25°
2026-05-06 20:37 41.85774 6.47105 37942 ft 520 kts 25°
2026-05-06 20:37 41.92104 6.51852 37964 ft 521 kts 25°
2026-05-06 20:38 41.98388 6.56575 37972 ft 521 kts 25°
2026-05-06 20:38 42.04720 6.61346 37983 ft 520 kts 25°
2026-05-06 20:39 42.11060 6.66064 37952 ft 519 kts 23°
2026-05-06 20:39 42.17636 6.69997 37951 ft 515 kts 16°
2026-05-06 20:40 42.24450 6.72883 37968 ft 511 kts 11°
2026-05-06 20:40 42.31272 6.75364 37956 ft 510 kts 10°
2026-05-06 20:41 42.38131 6.77864 37952 ft 510 kts 10°
2026-05-06 20:41 42.44987 6.80392 37956 ft 510 kts 11°
2026-05-06 20:42 42.51839 6.82937 37951 ft 510 kts 11°
2026-05-06 20:42 42.58695 6.85491 37942 ft 511 kts 11°
2026-05-06 20:43 42.65553 6.88052 37942 ft 511 kts 11°
2026-05-06 20:43 42.72421 6.90622 37943 ft 511 kts 11°
2026-05-06 20:44 42.79236 6.93178 37941 ft 511 kts 11°
2026-05-06 20:44 42.86101 6.95757 37943 ft 511 kts 11°
2026-05-06 20:45 42.92951 6.98339 37934 ft 511 kts 11°
2026-05-06 20:45 42.99809 7.00931 37930 ft 511 kts 11°
2026-05-06 20:46 43.06671 7.03527 37929 ft 512 kts 11°
2026-05-06 20:46 43.13562 7.06192 37908 ft 513 kts 13°
2026-05-06 20:47 43.20280 7.09653 37910 ft 517 kts 20°
2026-05-06 20:47 43.26761 7.13823 37899 ft 518 kts 22°
2026-05-06 20:48 43.33295 7.18132 37887 ft 518 kts 22°
2026-05-06 20:48 43.39813 7.22406 37880 ft 518 kts 22°
2026-05-06 20:49 43.46286 7.26642 37879 ft 518 kts 22°
2026-05-06 20:49 43.52806 7.30923 37867 ft 519 kts 23°
2026-05-06 20:50 43.59033 7.36023 37861 ft 523 kts 33°
2026-05-06 20:50 43.64571 7.42600 37871 ft 526 kts 45°
2026-05-06 20:51 43.69209 7.50423 37852 ft 526 kts 54°
2026-05-06 20:51 43.73395 7.58747 37837 ft 526 kts 55°
2026-05-06 20:52 43.77628 7.67030 37863 ft 527 kts 53°
2026-05-06 20:52 43.82341 7.74813 37854 ft 527 kts 44°
2026-05-06 20:53 43.87750 7.81555 37847 ft 525 kts 36°
2026-05-06 20:53 43.93738 7.87320 37847 ft 523 kts 28°
2026-05-06 20:54 44.00196 7.91951 37855 ft 520 kts 20°
2026-05-06 20:54 44.06946 7.95527 37851 ft 518 kts 16°
2026-05-06 20:55 44.13754 7.98877 37854 ft 520 kts 16°
2026-05-06 20:55 44.20577 8.02265 37858 ft 519 kts 16°
2026-05-06 20:56 44.27386 8.05686 37860 ft 519 kts 16°
2026-05-06 20:56 44.34136 8.09095 37866 ft 519 kts 16°
2026-05-06 20:57 44.40933 8.12537 37865 ft 518 kts 17°
2026-05-06 20:57 44.47714 8.15981 37861 ft 518 kts 17°
2026-05-06 20:58 44.54489 8.19431 37863 ft 518 kts 17°
2026-05-06 20:58 44.61268 8.22891 37868 ft 518 kts 17°
2026-05-06 20:59 44.68045 8.26359 37869 ft 518 kts 17°
2026-05-06 20:59 44.74810 8.29825 37865 ft 516 kts 17°
2026-05-06 21:00 44.81497 8.33266 37869 ft 515 kts 17°
2026-05-06 21:00 44.88258 8.36752 37871 ft 515 kts 17°
2026-05-06 21:01 44.94988 8.40227 37875 ft 514 kts 17°
2026-05-06 21:01 45.01699 8.43705 37872 ft 514 kts 17°
2026-05-06 21:02 45.08412 8.47190 37871 ft 515 kts 17°
2026-05-06 21:02 45.15166 8.50707 37907 ft 515 kts 17°
2026-05-06 21:03 45.21891 8.54219 37912 ft 515 kts 17°
2026-05-06 21:03 45.28612 8.57736 37934 ft 516 kts 17°
2026-05-06 21:04 45.35353 8.61273 37923 ft 516 kts 17°
2026-05-06 21:04 45.42097 8.64820 37921 ft 516 kts 17°
2026-05-06 21:05 45.48836 8.68371 37903 ft 517 kts 18°
2026-05-06 21:05 45.55538 8.71915 37897 ft 517 kts 18°
2026-05-06 21:06 45.62305 8.75503 37922 ft 517 kts 18°
2026-05-06 21:06 45.69058 8.79092 37924 ft 518 kts 18°
2026-05-06 21:07 45.75826 8.82698 37904 ft 518 kts 18°
2026-05-06 21:07 45.82606 8.86320 37932 ft 519 kts 18°
2026-05-06 21:08 45.89334 8.89926 37922 ft 519 kts 18°
2026-05-06 21:08 45.96095 8.93558 37921 ft 519 kts 18°
2026-05-06 21:09 46.02870 8.97208 37929 ft 518 kts 18°
2026-05-06 21:09 46.09643 9.00642 37955 ft 514 kts 13°
2026-05-06 21:10 46.16590 9.02930 37952 ft 510 kts
2026-05-06 21:10 46.23629 9.03895 37944 ft 506 kts 358°
2026-05-06 21:11 46.30581 9.03760 37937 ft 503 kts 354°
2026-05-06 21:11 46.37590 9.03407 37934 ft 503 kts 354°
2026-05-06 21:12 46.44579 9.03072 37926 ft 503 kts 354°
2026-05-06 21:12 46.51577 9.02756 37921 ft 502 kts 354°
2026-05-06 21:13 46.58566 9.02449 37924 ft 502 kts 354°
2026-05-06 21:13 46.65557 9.02132 37929 ft 501 kts 355°
2026-05-06 21:14 46.72527 9.01831 37927 ft 501 kts 355°
2026-05-06 21:14 46.79442 9.01532 37927 ft 501 kts 355°
2026-05-06 21:15 46.86413 9.01221 37929 ft 500 kts 356°
2026-05-06 21:15 46.88769 9.01117 37955 ft 500 kts 356°